Back to catalog

STARLINK-36915

AliveCommunicationsVLEO
NORAD 68061·PAYLOAD·🇺🇸 United States

Launched Mar 2, 2026 from Vandenberg Space Force Base

Loading…

Next Passes (next 24 hours)

TLE

FreshSource: CelesTrak SupGP

Epoch: Sep 14, 2026, 15:41 UTC

1 68061C 26041X   26257.65395833 -.00025783  00000+0 -76199-3 0  2576
2 68061  53.1582 246.7654 0001329  91.5112 332.8687 15.34394425    13

Track STARLINK-36915 in real time with AllMySat

Download on the App Store